Regional Weather Roundup
Issued by NWS

Home | Current Version | Previous Version | Text Only | Print | Product List | Glossary Off
Versions: 1 2 3 4 5 6 7 8 9 10 11 12 13 14 15 16 17 18 19 20 21 22 23 24 25 26 27 28 29 30 31 32 33 34 35 36 37 38 39 40 41 42 43 44 45 46 47 48 49 50

845
ASUS43 KDMX 221901
RWRIA

WEATHER ROUNDUP FOR IOWA
NATIONAL WEATHER SERVICE DES MOINES IA
200 PM CDT SUN OCT 22 2017

NOTE: "FAIR" INDICATES FEW OR NO CLOUDS BELOW 12,000 FEET WITH NO
SIGNIFICANT WEATHER AND/OR OBSTRUCTIONS TO VISIBILITY.

* - THESE STATIONS ARE NOT NWS STATIONS...THUS NOT UNDER NWS
QUALITY CONTROL.  THEY ALSO DO NOT REPORT WEATHER SUCH
AS PRECIPITATION OR FOG.

IAZ001>003-012>014-020>022-031>034-043>046-222000-
   NORTHWEST IOWA

CITY           SKY/WX    TMP DP  RH WIND       PRES   REMARKS
CHEROKEE *     SUNNY     64  32  30 W8        30.03F
DENISON *      SUNNY     64  32  29 SW9       30.06F
LE MARS *      SUNNY     66  30  26 SW9       30.01F
ORANGE CITY *  SUNNY     64  32  29 SW13      30.02F
SHELDON *      SUNNY     64  27  24 SW13      30.00F
SIOUX CITY     SUNNY     68  29  23 SW12G21   30.03F
SPENCER        SUNNY     65  29  25 W15       30.02F
STORM LAKE *   SUNNY     63  28  27 W12G17    30.04F
$$

IAZ055>058-069>071-079>083-090>094-222000-
   SOUTHWEST IOWA

CITY           SKY/WX    TMP DP  RH WIND       PRES   REMARKS
ATLANTIC *     SUNNY     64  36  34 W10       30.07F
AUDUBON *      SUNNY     64  30  27 NW9       30.08S
CLARINDA *     SUNNY     66  36  32 W9        30.11F
COUNCIL BLFS * SUNNY     64  34  32 SW10      30.07F
CRESTON *      SUNNY     63  36  36 N10G17    30.09F
HARLAN  *      SUNNY     64  32  29 W8G14     30.09F
LAMONI         MOSUNNY   61  41  47 NW12      30.08F
RED OAK *      SUNNY     66  34  30 NW6G14    30.08F
SHENANDOAH *   SUNNY     68  30  24 W6G13     30.09F
$$

IAZ047>049-059>061-072>074-084-222000-
   CENTRAL IOWA

CITY           SKY/WX    TMP DP  RH WIND       PRES   REMARKS
AMES           PTSUNNY   64  39  39 NW12      30.05F
ANKENY *       CLOUDY    63  39  42 NW8       30.07F
BOONE *        CLOUDY    63  36  36 NW14      30.04F
CHARITON *     CLOUDY    59  43  55 NW7       30.08S
DES MOINES     MOSUNNY   64  38  38 NW13      30.06F
GRINNELL*      PTSUNNY   59  45  60 NW12      30.08S
KNOXVILLE *    PTSUNNY   59  41  51 NW9       30.07S
MARSHALLTOWN   CLOUDY    60  42  51 W12       30.05S
NEWTON *       CLOUDY    59  43  55 NW7       30.07S
PELLA *        CLOUDY    59  43  55 NW8G18    30.09S
PERRY *          N/A     67  29  24 NW9       30.06S
$$

IAZ004>006-015-016-023>025-035-036-222000-
   NORTH CENTRAL IOWA

CITY           SKY/WX    TMP DP  RH WIND       PRES   REMARKS
ALGONA *       SUNNY     63  30  29 NW12G23   30.03F
CLARION *      SUNNY     63  34  34 NW14G20   30.03F
ESTHERVILLE    SUNNY     62  29  28 W12G18    30.01F
FORT DODGE *   SUNNY     64  33  31 W10       30.04F
MASON CITY     MOSUNNY   62  35  36 W13       30.03F
FOREST CITY *    N/A     61  32  33 NW10G17   30.02F
WEBSTER CITY * SUNNY     64  32  29 MISG      30.02F
IOWA FALLS *     N/A     62  38  41 NW9G16    30.05F
$$

IAZ007>011-017>019-026>030-037>042-050>054-066-222000-
   NORTHEAST IOWA

CITY           SKY/WX    TMP DP  RH WIND       PRES   REMARKS
CEDAR RAPIDS   CLOUDY    54  47  77 NW9       30.05R
CHARLES CITY * CLOUDY    61  36  39 NW12      30.03S
CLINTON *      CLOUDY    53  48  83 NW8       30.04R
DECORAH *      CLOUDY    52  45  76 W5        30.02S
DUBUQUE        CLOUDY    52  46  80 NW7       30.03R
MONTICELLO *   CLOUDY    54  46  76 NW5       30.05R
OELWEIN *      CLOUDY    54  46  76 NW7       30.05S
WATERLOO       CLOUDY    57  45  64 VRB5      30.04S
$$

IAZ064-065-067-068-078-222000-
   EAST CENTRAL IOWA

CITY           SKY/WX    TMP DP  RH WIND       PRES   REMARKS
DAVENPORT      LGT RAIN  52  48  86 N8        30.05R
IOWA CITY      LGT RAIN  56  48  74 NW5       30.06R
MUSCATINE *    CLOUDY    55  48  76 NW7       30.06R
QUAD CITIES    CLOUDY    54  46  74 N6        30.02R
$$

IAZ062-063-075>077-085>089-095>099-222000-
   SOUTHEAST IOWA

CITY           SKY/WX    TMP DP  RH WIND       PRES   REMARKS
BURLINGTON     CLOUDY    54  48  80 NW6       30.05R
FAIRFIELD *    CLOUDY    54  48  82 W9        30.08R
FORT MADISON * CLOUDY    54  50  87 NW9       30.07R
KEOKUK *       CLOUDY    55  48  76 NW7       30.06R
OSKALOOSA *      N/A     54  47  77 NW7       30.08S
OTTUMWA        PTSUNNY   54  47  77 NW7       30.08S
WASHINGTON *   CLOUDY    55  50  82 NW8       30.07F
$$

ABBREVIATIONS USED IN REMARKS
   TC - TEMPERATURES IN CELSIUS
  WCI - WIND CHILL INDEX
   HX - HEAT INDEX
  VSB - VISIBILITY
$$





USA.gov is the U.S. government's official web portal to all federal, state and local government web resources and services.